Location: Waltman Observatory
(32.5145°N, 90.4450°W)
Time: 10:06:41
(UTC-06:00)

Amateur Radio Satellites - All Passes

Search period start: 26 November 2014 09:36
Search period end: 27 November 2014 09:36
Location: Waltman Observatory, 32.5145°N, 90.4450°W

Satellite Date Start Highest point End Downlink Frequencies (MHz)
Time Altitude Azimuth
ANTELSAT 26 Nov 09:46:28 09:50:39 55° 75° (ENE) 09:54:49 437.575/2403.000
GONETS M04 26 Nov 09:46:56 09:53:41 24° 288° (WNW) 10:00:30
AISAT 26 Nov 09:48:19 09:51:47 22° 96° (E) 09:55:14 437.250
UKube-1 26 Nov 09:50:23 09:54:44 86° 103° (ESE) 09:59:03 .
BRITE-PL 26 Nov 09:51:58 09:55:14 23° 288° (WNW) 09:58:33 437.365/2234.400
FUNcube-1 26 Nov 09:53:52 09:57:56 44° 99° (E) 10:02:05 145.935
SEEDS 26 Nov 09:57:05 10:00:23 22° 289° (WNW) 10:03:41 437.485
POLYITAN 1 26 Nov 10:00:30 10:04:41 55° 75° (ENE) 10:08:50 437.675
Oscar 11 26 Nov 10:01:31 10:05:47 56° 285° (WNW) 10:10:03 145.826/435.025
QB50P2 26 Nov 10:02:22 10:06:33 58° 75° (ENE) 10:10:45 145.880/145.840
DUCHIFAT 1 26 Nov 10:08:09 10:12:23 68° 76° (ENE) 10:16:37 145.980
AAUSAT CUBESAT 2 26 Nov 10:13:32 10:16:33 19° 290° (WNW) 10:19:34 437.432
DOVE 4 26 Nov 10:16:13 10:19:34 24° 288° (WNW) 10:23:00 437.250
DELFI C3 26 Nov 10:16:22 10:20:16 41° 286° (WNW) 10:24:09 145.870
UWE-3 26 Nov 10:20:38 10:24:53 70° 283° (WNW) 10:29:14 435.000/436.395/437.385
CUBEBUG 2 26 Nov 10:21:06 10:25:18 58° 284° (WNW) 10:29:36 437.445
50 SAT 26 Nov 10:22:33 10:26:29 46° 100° (E) 10:30:24 437.505
DX 1 26 Nov 10:26:39 10:30:32 33° 288° (WNW) 10:34:24 434.975-435.025
NANOSAT C BR1 26 Nov 10:27:38 10:31:52 67° 259° (WSW) 10:36:06 145.865
COMPASS 1 26 Nov 10:30:38 10:31:55 11° 293° (WNW) 10:33:11 437.405
HUMSAT D 26 Nov 10:35:45 10:39:56 87° 101° (E) 10:44:10 437.325/437.525
QB50P1 26 Nov 10:37:42 10:41:50 49° 260° (W) 10:45:58 145.935-145.965
TIGRISAT 26 Nov 10:40:57 10:44:44 31° 262° (W) 10:48:30 435.000
BUGSAT 1 26 Nov 10:46:31 10:50:37 47° 260° (W) 10:54:43 437.445
CINEMA 3 26 Nov 10:50:17 10:53:00 17° 290° (WNW) 10:55:46 145.822/145.860
ZACube-1 26 Nov 10:55:25 10:59:10 31° 287° (WNW) 11:02:59 437.345
UNISAT 6 26 Nov 10:55:27 10:58:40 21° 264° (W) 11:01:54 437.425
ESTCUBE 1 26 Nov 10:57:23 11:01:48 52° 100° (E) 11:06:11 437.505/2401.250
VELOX 1 26 Nov 10:57:39 11:01:56 52° 286° (WNW) 11:06:12 145.980
POPSAT HIP 1 26 Nov 11:03:19 11:06:48 24° 263° (W) 11:10:17 437.405
HO-68 26 Nov 11:09:22 11:11:37 12° 303° (WNW) 11:13:51 435.675
TISAT 1 26 Nov 11:12:31 11:15:01 15° 95° (E) 11:17:30 437.305
SPROUT 26 Nov 11:23:02 11:26:02 19° 95° (E) 11:29:01 437.525
AISAT 26 Nov 11:24:43 11:28:19 25° 289° (WNW) 11:31:54 437.250
FUNcube-1 26 Nov 11:32:06 11:33:54 13° 292° (WNW) 11:35:43 145.935
CUBEBUG 1 26 Nov 11:35:39 11:39:54 55° 285° (WNW) 11:44:07 437.445
SO-50 26 Nov 11:50:32 11:54:29 24° 53° (NE) 11:58:25 436.795
Oscar 19 26 Nov 11:54:07 11:57:55 22° 68° (ENE) 12:01:43 437.125/150
50 SAT 26 Nov 12:00:20 12:01:21 11° 293° (WNW) 12:02:22 437.505
YUBILEINY 26 Nov 12:15:12 12:21:14 20° 70° (ENE) 12:27:13 435.215
SWISSCUBE 26 Nov 12:20:48 12:23:23 14° 94° (E) 12:25:57 437.505
ESTCUBE 1 26 Nov 12:36:27 12:38:11 12° 294° (WNW) 12:39:54 437.505/2401.250
CUSAT 1 26 Nov 12:38:10 12:41:02 70° 97° (E) 12:43:37 437.405
AUBIESAT-1 26 Nov 12:44:14 12:48:30 29° 101° (E) 12:52:36 437.475
TISAT 1 26 Nov 12:47:08 12:50:53 32° 287° (WNW) 12:54:37 437.305
ITAMSAT 1 26 Nov 12:47:29 12:51:51 28° 69° (ENE) 12:56:13 435.822/435.867
M-CUBED/EXP-1 PRIME 26 Nov 12:49:33 12:54:07 37° 102° (ESE) 12:58:30 437.505
BEESAT 26 Nov 12:50:25 12:54:35 29° 97° (E) 12:58:42 436.000
SPROUT 26 Nov 12:58:26 13:02:05 28° 288° (WNW) 13:05:43 437.525
PHONESAT 2.4 26 Nov 13:00:46 13:03:53 26° 144° (SE) 13:07:00 2401.200-2431.200
DANDE 26 Nov 13:06:03 13:08:56 43° 278° (W) 13:11:29 436.750
VERMONT LUNAR 26 Nov 13:09:40 13:13:07 45° 148° (SSE) 13:16:36 437.305
Gurwin Techsat 1B 26 Nov 13:21:53 13:26:37 34° 71° (ENE) 13:31:21 435.225
HORYU 2 26 Nov 13:23:40 13:25:07 12° 66° (ENE) 13:26:35 437.375
SO-50 26 Nov 13:30:38 13:35:03 35° 248° (WSW) 13:39:28 436.795
Oscar 19 26 Nov 13:32:20 13:36:58 36° 262° (W) 13:41:39 437.125/150
ITUPSAT 1 26 Nov 13:45:55 13:50:41 67° 285° (WNW) 13:55:25 437.325
SWISSCUBE 26 Nov 13:56:51 14:01:25 45° 287° (WNW) 14:05:56 437.505
STARS 26 Nov 14:04:53 14:08:23 23° 97° (E) 14:11:53 437.465
YUBILEINY 26 Nov 14:10:04 14:18:42 70° 268° (W) 14:27:16 435.215
AO-7 26 Nov 14:19:11 14:26:08 31° 62° (ENE) 14:33:06 29.400- 29.500
AUBIESAT-1 26 Nov 14:19:17 14:23:17 26° 295° (WNW) 14:27:11 437.475
M-CUBED/EXP-1 PRIME 26 Nov 14:25:10 14:28:49 21° 296° (WNW) 14:32:23 437.505
ITAMSAT 1 26 Nov 14:26:45 14:31:12 28° 263° (W) 14:35:39 435.822/435.867
BEESAT 26 Nov 14:28:30 14:32:14 23° 291° (WNW) 14:35:57 436.000
PHONESAT 2.4 26 Nov 14:38:52 14:42:31 55° 337° (NNW) 14:46:10 2401.200-2431.200
O/OREOS (USA 219) 26 Nov 14:43:19 14:45:29 13° 60° (ENE) 14:47:38 437.305
KKS-1 26 Nov 14:45:51 14:50:17 70° 284° (WNW) 14:54:41 437.445
VERMONT LUNAR 26 Nov 14:48:16 14:51:39 37° 342° (NNW) 14:55:03 437.305
HORYU 2 26 Nov 14:56:59 15:01:17 52° 260° (W) 15:05:37 437.375
MaSat-1 26 Nov 15:01:10 15:03:55 29° 294° (WNW) 15:06:27 437.345
Gurwin Techsat 1B 26 Nov 15:02:22 15:06:33 24° 264° (W) 15:10:46 435.225
RS-15 26 Nov 15:10:31 15:21:12 58° 111° (ESE) 15:31:46 29.354- 29.394
JAS-2 26 Nov 15:32:42 15:39:06 31° 66° (ENE) 15:45:42 435.910
STARS 26 Nov 15:41:14 15:44:45 24° 290° (WNW) 15:48:15 437.465
MOZHAYETS 4 26 Nov 15:55:53 15:58:28 15° 93° (E) 16:01:02
AO-7 26 Nov 16:10:32 16:18:29 51° 258° (WSW) 16:26:31 29.400- 29.500
CUTE-I 26 Nov 16:14:43 16:16:39 12° 63° (ENE) 16:18:36 437.470
PHONESAT 2.4 26 Nov 16:18:41 16:21:46 24° 354° (N) 16:24:52 2401.200-2431.200
O/OREOS (USA 219) 26 Nov 16:20:49 16:25:06 46° 255° (WSW) 16:29:23 437.305
VERMONT LUNAR 26 Nov 16:27:48 16:30:43 22° 359° (N) 16:33:37 437.305
Cubesat XI-IV 26 Nov 17:09:47 17:14:52 45° 72° (ENE) 17:19:58 437.490
JAS-2 26 Nov 17:16:28 17:23:39 50° 262° (W) 17:31:14 435.910
RS-15 26 Nov 17:24:10 17:33:55 36° 311° (NW) 17:43:43 29.354- 29.394
MOZHAYETS 4 26 Nov 17:31:27 17:35:50 42° 286° (WNW) 17:40:11
CUBESAT XI-V 26 Nov 17:39:37 17:41:35 13° 92° (E) 17:43:33 437.345
CUTE-I 26 Nov 17:50:42 17:56:03 72° 258° (WSW) 18:01:24 437.470
PCSat 26 Nov 17:51:13 17:54:10 15° 104° (ESE) 17:57:08 145.827
PHONESAT 2.4 26 Nov 17:58:00 18:01:15 28° 11° (NNE) 18:04:30 2401.200-2431.200
GONETS M04 26 Nov 18:05:04 18:11:46 23° 72° (ENE) 18:18:22
VERMONT LUNAR 26 Nov 18:06:27 18:09:48 34° 16° (NNE) 18:13:09 437.305
STRAND 1 26 Nov 18:24:05 18:28:51 40° 99° (E) 18:33:35 437.568
PRISM 26 Nov 18:28:53 18:33:00 52° 286° (WNW) 18:37:04 437.425
Cubesat XI-IV 26 Nov 18:51:32 18:55:06 18° 265° (W) 18:58:40 437.490
CUBESAT XI-V 26 Nov 19:14:46 19:19:14 48° 286° (WNW) 19:23:40 437.345
BEESAT 3 26 Nov 19:19:43 19:23:43 63° 115° (ESE) 19:27:49 437.485
BRITE-PL 26 Nov 19:20:29 19:23:54 19° 70° (ENE) 19:27:10 437.365/2234.400
AAUSAT CUBESAT 2 26 Nov 19:27:12 19:28:14 11° 67° (ENE) 19:29:16 437.432
AIST 1 26 Nov 19:29:48 19:34:11 84° 275° (W) 19:38:37
PCSat 26 Nov 19:31:44 19:37:02 56° 298° (WNW) 19:42:22 145.827
BEESAT 2 26 Nov 19:35:42 19:39:47 88° 117° (ESE) 19:43:58 435.950
PHONESAT 2.4 26 Nov 19:36:37 19:40:20 89° 27° (NNE) 19:44:03 2401.200-2431.200
CANX-2 26 Nov 19:38:14 19:41:48 27° 72° (ENE) 19:45:23 2200.000
COMPASS 1 26 Nov 19:40:57 19:43:54 19° 70° (ENE) 19:46:52 437.405
HO-68 26 Nov 19:41:08 19:47:59 50° 69° (ENE) 19:54:52 435.675
DOVE 4 26 Nov 19:41:21 19:43:54 15° 69° (ENE) 19:46:22 437.250
VERMONT LUNAR 26 Nov 19:44:50 19:48:23 53° 211° (SSW) 19:51:55 437.305
RS-15 26 Nov 19:50:02 19:51:06 10° 343° (NNW) 19:52:09 29.354- 29.394
GONETS M04 26 Nov 20:00:26 20:09:04 63° 269° (W) 20:17:38
STRAND 1 26 Nov 20:04:09 20:07:42 19° 293° (WNW) 20:11:15 437.568
CINEMA 3 26 Nov 20:10:58 20:13:57 18° 70° (ENE) 20:16:53 145.822/145.860
CUTE 1.7 + AOD 2 26 Nov 20:12:05 20:16:15 68° 76° (ENE) 20:20:27 437.475
AIST 2 26 Nov 20:13:32 20:17:43 74° 298° (WNW) 20:21:59 435.215
GOMX 1 26 Nov 20:24:31 20:29:21 67° 76° (ENE) 20:33:52 467.674
UKube-1 26 Nov 20:41:12 20:45:16 40° 73° (ENE) 20:49:20 .
AISAT 26 Nov 20:43:56 20:45:55 13° 67° (ENE) 20:47:54 437.250
SEEDS 26 Nov 20:44:11 20:48:16 54° 260° (W) 20:52:24 437.485
FUNcube-1 26 Nov 20:46:41 20:49:44 20° 71° (ENE) 20:52:46 145.935
Oscar 11 26 Nov 20:51:41 20:55:55 60° 76° (ENE) 21:00:10 145.826/435.025
BRITE-PL 26 Nov 20:57:25 21:02:10 38° 261° (W) 21:06:36 437.365/2234.400
AAUSAT CUBESAT 2 26 Nov 20:59:27 21:03:26 47° 260° (W) 21:07:28 437.432
DELFI C3 26 Nov 21:00:24 21:04:25 64° 76° (ENE) 21:08:28 145.870
BEESAT 3 26 Nov 21:01:22 21:02:21 11° 311° (NW) 21:03:20 437.485
50 SAT 26 Nov 21:08:27 21:11:02 17° 70° (ENE) 21:13:36 437.505
UWE-3 26 Nov 21:13:44 21:17:52 52° 75° (ENE) 21:21:56 435.000/436.395/437.385
CANX-2 26 Nov 21:14:47 21:17:42 18° 265° (W) 21:20:38 2200.000
CUBEBUG 2 26 Nov 21:15:10 21:19:25 65° 76° (ENE) 21:23:35 437.445
COMPASS 1 26 Nov 21:15:56 21:19:26 26° 263° (W) 21:22:57 437.405
PHONESAT 2.4 26 Nov 21:16:39 21:18:46 15° 220° (SW) 21:20:53 2401.200-2431.200
DOVE 4 26 Nov 21:16:57 21:21:22 41° 261° (W) 21:25:34 437.250
DX 1 26 Nov 21:17:16 21:21:38 70° 258° (WSW) 21:26:01 434.975-435.025
HUMSAT D 26 Nov 21:24:06 21:27:48 32° 73° (ENE) 21:31:29 437.325/437.525
HO-68 26 Nov 21:30:09 21:35:51 25° 264° (W) 21:41:35 435.675
ISS 26 Nov 21:39:28 21:42:15 26° 129° (SE) 21:45:03 145.825
ANTELSAT 26 Nov 21:44:08 21:47:09 17° 95° (E) 21:50:11 437.575/2403.000
ZACube-1 26 Nov 21:46:47 21:51:00 70° 259° (WSW) 21:55:11 437.345
CINEMA 3 26 Nov 21:47:03 21:50:57 30° 262° (W) 21:54:44 145.822/145.860
VELOX 1 26 Nov 21:50:45 21:55:14 79° 76° (ENE) 21:59:42 145.980
POLYITAN 1 26 Nov 21:52:55 21:54:55 13° 94° (E) 21:56:55 437.675
JUGNU 26 Nov 21:52:56 21:55:55 14° 165° (SSE) 21:58:53 437.505
ESTCUBE 1 26 Nov 21:53:09 21:57:00 28° 71° (ENE) 22:00:53 437.505/2401.250
QB50P2 26 Nov 21:54:25 21:56:36 14° 94° (E) 21:58:46 145.880/145.840
DUCHIFAT 1 26 Nov 21:59:33 22:02:06 16° 95° (E) 22:04:39 145.980
RS-15 26 Nov 22:07:09 22:11:22 12° 24° (NNE) 22:15:38 29.354- 29.394
AISAT 26 Nov 22:17:46 22:22:06 48° 260° (W) 22:26:26 437.250
NANOSAT C BR1 26 Nov 22:18:12 22:21:48 27° 97° (E) 22:25:23 145.865
UKube-1 26 Nov 22:19:23 22:21:33 14° 266° (W) 22:23:42 .
FUNcube-1 26 Nov 22:22:25 22:25:55 25° 263° (W) 22:29:24 145.935
CUBEBUG 1 26 Nov 22:27:10 22:31:34 68° 76° (ENE) 22:36:00 437.445
QB50P1 26 Nov 22:27:59 22:31:53 36° 99° (E) 22:35:46 145.935-145.965
BUGSAT 1 26 Nov 22:34:05 22:37:46 33° 98° (E) 22:41:25 437.445
TIGRISAT 26 Nov 22:36:30 22:40:57 73° 102° (ESE) 22:45:31 435.000
50 SAT 26 Nov 22:42:37 22:46:06 28° 263° (W) 22:49:35 437.505
UNISAT 6 26 Nov 22:50:40 22:55:09 75° 283° (WNW) 22:59:43 437.425
POPSAT HIP 1 26 Nov 22:52:39 22:56:52 77° 102° (ESE) 23:01:05 437.405
HUMSAT D 26 Nov 23:01:20 23:03:39 15° 266° (W) 23:05:59 437.325/437.525
ISS 26 Nov 23:16:12 23:18:51 22° 324° (NW) 23:21:30 145.825
CUSAT 1 26 Nov 23:18:33 23:23:30 45° 82° (E) 23:29:57 437.405
ANTELSAT 26 Nov 23:19:55 23:23:58 34° 287° (WNW) 23:28:05 437.575/2403.000
SWISSCUBE 26 Nov 23:25:15 23:26:14 11° 64° (ENE) 23:27:12 437.505
POLYITAN 1 26 Nov 23:27:03 23:30:58 38° 287° (WNW) 23:34:54 437.675
QB50P2 26 Nov 23:28:44 23:32:37 36° 287° (WNW) 23:36:29 145.880/145.840
ESTCUBE 1 26 Nov 23:30:22 23:33:49 21° 264° (W) 23:37:17 437.505/2401.250
AUBIESAT-1 26 Nov 23:30:29 23:33:12 18° 62° (ENE) 23:36:04 437.475
DUCHIFAT 1 26 Nov 23:34:16 23:38:00 32° 287° (WNW) 23:41:44 145.980
TISAT 1 26 Nov 23:34:43 23:38:59 81° 258° (WSW) 23:43:16 437.305
M-CUBED/EXP-1 PRIME 26 Nov 23:35:54 23:39:02 22° 64° (ENE) 23:42:23 437.505
JUGNU 26 Nov 23:39:50 23:44:17 22° 174° (S) 23:48:46 437.505
SPROUT 26 Nov 23:47:32 23:51:49 66° 259° (W) 23:56:07 437.525
DANDE 26 Nov 23:48:22 23:53:20 72° 83° (E) 00:00:04 436.750
SRMSAT 26 Nov 23:52:53 23:56:41 17° 168° (SSE) 00:00:29 437.500
BEESAT 26 Nov 23:53:17 23:56:50 21° 69° (ENE) 00:00:22 436.000
NANOSAT C BR1 26 Nov 23:54:31 23:57:29 19° 290° (WNW) 00:00:26 145.865
QB50P1 27 Nov 00:05:08 00:07:26 15° 292° (WNW) 00:09:45 145.935-145.965
BUGSAT 1 27 Nov 00:10:46 00:12:57 14° 292° (WNW) 00:15:07 437.445
Oscar 19 27 Nov 00:12:56 00:13:25 10° 92° (E) 00:13:54 437.125/150
RS-15 27 Nov 00:17:05 00:27:45 45° 53° (NE) 00:38:48 29.354- 29.394
MaSat-1 27 Nov 00:43:15 00:45:35 68° 249° (WSW) 00:48:03 437.345
ITUPSAT 1 27 Nov 00:48:06 00:52:54 83° 76° (ENE) 00:57:44 437.325
SWISSCUBE 27 Nov 00:58:42 01:03:28 67° 258° (WSW) 01:08:16 437.505
STARS 27 Nov 00:59:36 01:01:28 13° 67° (ENE) 01:03:20 437.465
CUSAT 1 27 Nov 01:02:37 01:06:33 20° 266° (W) 01:11:13 437.405
AUBIESAT-1 27 Nov 01:04:21 01:07:53 31° 259° (W) 01:11:43 437.475
ITAMSAT 1 27 Nov 01:06:17 01:08:51 14° 93° (E) 01:11:25 435.822/435.867
YUBILEINY 27 Nov 01:10:12 01:17:14 28° 84° (E) 01:24:14 435.215
M-CUBED/EXP-1 PRIME 27 Nov 01:10:44 01:13:57 24° 261° (W) 01:17:24 437.505
JUGNU 27 Nov 01:28:12 01:32:44 23° 185° (S) 01:37:17 437.505
BEESAT 27 Nov 01:30:09 01:34:25 32° 262° (W) 01:38:43 436.000
DANDE 27 Nov 01:35:07 01:36:48 11° 268° (W) 01:38:35 436.750
KKS-1 27 Nov 01:39:34 01:43:56 59° 75° (ENE) 01:48:19 437.445
SRMSAT 27 Nov 01:40:35 01:45:16 24° 177° (S) 01:49:56 437.500
Gurwin Techsat 1B 27 Nov 01:43:23 01:47:10 20° 95° (E) 01:50:56 435.225
Oscar 19 27 Nov 01:47:59 01:53:08 70° 285° (WNW) 01:58:17 437.125/150
SO-50 27 Nov 02:01:51 02:04:58 19° 109° (ESE) 02:08:08 436.795
RS-15 27 Nov 02:29:28 02:40:06 48° 251° (WSW) 02:51:12 29.354- 29.394
AO-7 27 Nov 02:30:45 02:31:27 10° 91° (E) 02:32:08 29.400- 29.500
STARS 27 Nov 02:33:16 02:37:30 47° 260° (W) 02:41:45 437.465
ITAMSAT 1 27 Nov 02:43:34 02:48:36 54° 287° (WNW) 02:53:36 435.822/435.867
HORYU 2 27 Nov 02:53:11 02:57:28 42° 99° (E) 03:01:43 437.375
YUBILEINY 27 Nov 03:04:57 03:13:27 53° 280° (W) 03:21:59 435.215
JUGNU 27 Nov 03:17:49 03:21:09 15° 194° (SSW) 03:24:29 437.505
Gurwin Techsat 1B 27 Nov 03:22:17 03:27:13 40° 288° (WNW) 03:32:07 435.225
SRMSAT 27 Nov 03:29:27 03:33:52 21° 188° (S) 03:38:17 437.500
SO-50 27 Nov 03:41:06 03:45:11 35° 304° (NW) 03:49:25 436.795
BEESAT 3 27 Nov 03:46:06 03:47:31 11° 49° (NE) 03:48:56 437.485
BEESAT 2 27 Nov 04:01:34 04:04:04 15° 51° (NE) 04:06:33 435.950
AO-7 27 Nov 04:16:49 04:25:13 76° 106° (ESE) 04:33:34 29.400- 29.500
PCSat 27 Nov 04:24:17 04:29:27 43° 61° (ENE) 04:34:35 145.827
MOZHAYETS 4 27 Nov 04:28:31 04:33:05 78° 258° (WSW) 04:37:43
HORYU 2 27 Nov 04:31:18 04:33:44 15° 293° (WNW) 04:36:10 437.375
JAS-2 27 Nov 04:32:53 04:38:54 34° 95° (E) 04:44:16 435.910
AIST 2 27 Nov 04:40:44 04:43:53 20° 53° (NE) 04:46:59 435.215
O/OREOS (USA 219) 27 Nov 04:49:28 04:53:30 33° 104° (ESE) 04:57:31 437.305
PRISM 27 Nov 05:15:02 05:19:09 60° 75° (ENE) 05:23:19 437.425
SRMSAT 27 Nov 05:20:02 05:22:25 12° 197° (SSW) 05:24:47 437.500
BEESAT 3 27 Nov 05:21:59 05:26:06 59° 245° (WSW) 05:30:09 437.485
Cubesat XI-IV 27 Nov 05:32:18 05:36:42 26° 97° (E) 05:41:05 437.490
STRAND 1 27 Nov 05:35:34 05:40:14 36° 71° (ENE) 05:44:55 437.568
BEESAT 2 27 Nov 05:38:35 05:42:32 41° 247° (WSW) 05:46:26 435.950
AIST 1 27 Nov 05:43:27 05:46:04 15° 75° (ENE) 05:48:39
ISS 27 Nov 05:47:31 05:50:42 44° 41° (NE) 05:53:52 145.825
PCSat 27 Nov 06:08:40 06:12:29 20° 255° (WSW) 06:16:17 145.827
AO-7 27 Nov 06:11:20 06:17:06 21° 302° (WNW) 06:22:53 29.400- 29.500
CUTE-I 27 Nov 06:12:38 06:17:56 68° 102° (ESE) 06:23:11 437.470
CUBESAT XI-V 27 Nov 06:13:14 06:17:57 86° 257° (WSW) 06:22:42 437.345
JAS-2 27 Nov 06:17:52 06:23:49 33° 293° (WNW) 06:29:10 435.910
AIST 2 27 Nov 06:18:44 06:22:32 32° 248° (WSW) 06:26:18 435.215
O/OREOS (USA 219) 27 Nov 06:29:54 06:32:56 18° 298° (WNW) 06:35:59 437.305
GONETS M04 27 Nov 07:00:06 07:07:29 32° 85° (E) 07:14:54
Cubesat XI-IV 27 Nov 07:12:07 07:16:43 31° 290° (WNW) 07:21:18 437.490
STRAND 1 27 Nov 07:15:38 07:19:26 21° 265° (W) 07:23:16 437.568
AIST 1 27 Nov 07:19:54 07:23:47 32° 269° (W) 07:27:37
ISS 27 Nov 07:25:42 07:27:01 12° 234° (SW) 07:28:20 145.825
CUTE-I 27 Nov 07:55:13 07:57:21 13° 296° (WNW) 07:59:29 437.470
CUTE 1.7 + AOD 2 27 Nov 08:03:24 08:06:12 17° 95° (E) 08:09:00 437.475
GOMX 1 27 Nov 08:31:29 08:34:56 24° 97° (E) 08:38:28 467.674
SEEDS 27 Nov 08:33:45 08:37:39 34° 98° (E) 08:41:32 437.485
Oscar 11 27 Nov 08:45:04 08:47:44 16° 94° (E) 08:50:25 145.826/435.025
DELFI C3 27 Nov 08:47:39 08:49:42 13° 94° (E) 08:51:44 145.870
AAUSAT CUBESAT 2 27 Nov 08:47:46 08:51:41 36° 98° (E) 08:55:36 437.432
GONETS M04 27 Nov 08:55:32 09:03:52 47° 282° (WNW) 09:12:19
HO-68 27 Nov 09:01:01 09:08:13 80° 105° (ESE) 09:15:21 435.675
CANX-2 27 Nov 09:03:27 09:07:45 76° 283° (WNW) 09:12:02 2200.000
COMPASS 1 27 Nov 09:03:48 09:08:02 69° 101° (E) 09:12:16 437.405
BRITE-PL 27 Nov 09:06:31 09:10:41 82° 282° (WNW) 09:14:58 437.365/2234.400
NANOSAT C BR1 27 Nov 09:08:47 09:10:34 12° 67° (ENE) 09:12:21 145.865
UWE-3 27 Nov 09:09:36 09:12:07 15° 95° (E) 09:14:39 435.000/436.395/437.385
DX 1 27 Nov 09:10:54 09:14:38 28° 98° (E) 09:18:20 434.975-435.025
CUBEBUG 2 27 Nov 09:11:46 09:14:51 19° 96° (E) 09:18:00 437.445
QB50P1 27 Nov 09:17:56 09:20:35 16° 69° (ENE) 09:23:14 145.935-145.965
DOVE 4 27 Nov 09:20:16 09:24:29 73° 101° (ESE) 09:28:52 437.250
BUGSAT 1 27 Nov 09:21:27 09:23:48 15° 68° (ENE) 09:26:09 437.445
